This is the latest recevied weather packets stored in our database for station/object KC8YYF. If no packets are shown the sender has not sent any weather packets the latest 10 day(s).
| Time | Temp. | Humidity | Pressure | Rain* | Wind** | Luminosity | Snow |
|---|---|---|---|---|---|---|---|
| 1777558750 | 7.22° C | 82% | 1015.2 hPa | 0 mm | - | 89 W/m² | - |
| 1777558446 | 7.22° C | 83% | 1015.1 hPa | 0 mm | - | 111 W/m² | - |
| 1777558143 | 7.22° C | 84% | 1015.1 hPa | 0 mm | - | 62 W/m² | - |
| 1777557839 | 6.67° C | 83% | 1014.9 hPa | 0 mm | - | 84 W/m² | - |
| 1777557536 | 6.67° C | 83% | 1014.8 hPa | 0 mm | - | 92 W/m² | - |
| 1777557232 | 6.67° C | 83% | 1014.8 hPa | 0 mm | - | 97 W/m² | - |
| 1777556928 | 6.11° C | 83% | 1014.7 hPa | 0 mm | - | 62 W/m² | - |
| 1777556624 | 6.11° C | 85% | 1014.7 hPa | 0 mm | - | 48 W/m² | - |
| 1777556318 | 6.11° C | 86% | 1014.8 hPa | 0 mm | - | 42 W/m² | - |
| 1777556015 | 6.11° C | 85% | 1014.7 hPa | 0 mm | - | 26 W/m² | - |
| 1777555710 | 6.11° C | 86% | 1014.7 hPa | 0 mm | - | 22 W/m² | - |
| 1777555407 | 6.11° C | 84% | 1014.4 hPa | 0 mm | - | 42 W/m² | - |
| 1777555103 | 6.11° C | 85% | 1014.4 hPa | 0 mm | - | 32 W/m² | - |
| 1777554801 | 6.11° C | 85% | 1014.4 hPa | 0 mm | - | 26 W/m² | - |
| 1777554498 | 6.11° C | 84% | 1014.2 hPa | 0 mm | - | 44 W/m² | - |
| 1777554194 | 7.22° C | 84% | 1014.1 hPa | 0 mm | - | 61 W/m² | - |
| 1777553891 | 6.11° C | 86% | 1014 hPa | 0 mm | - | 57 W/m² | - |
| 1777553587 | 6.11° C | 87% | 1014 hPa | 0 mm | - | 53 W/m² | - |
| 1777553284 | 6.11° C | 87% | 1013.8 hPa | 0 mm | - | 42 W/m² | - |
| 1777552980 | 6.11° C | 87% | 1013.7 hPa | 0 mm | - | 43 W/m² | - |
| 1777552679 | 5.56° C | 87% | 1013.7 hPa | 0 mm | - | 31 W/m² | - |
| 1777552377 | 6.11° C | 89% | 1013.5 hPa | 0 mm | - | 37 W/m² | - |
| 1777552073 | 5.56° C | 88% | 1013.9 hPa | 0 mm | - | 33 W/m² | - |
| 1777551770 | 6.11° C | 88% | 1013.8 hPa | 0 mm | - | 40 W/m² | - |
| 1777551468 | 6.11° C | 89% | 1013.5 hPa | 0 mm | - | 37 W/m² | - |
* Rain latest hour (hover to see other rain measurements)
** Current wind speed in m/s (hover to see current wind gust speed)